Regional Weather Roundup
Issued by NWS Goodland, KS

Home | Current Version | Previous Version | Text Only | Print | Product List | Glossary Off
Versions: 1 2 3 4 5 6 7 8 9 10 11 12 13 14 15 16 17 18 19 20 21 22 23 24 25 26 27 28 29 30 31 32 33 34 35 36 37 38 39 40 41 42 43 44 45 46 47 48 49 50

000
ASUS43 KGLD 261108
RWRGLD

GOODLAND FORECAST AREA HOURLY WEATHER ROUNDUP
NATIONAL WEATHER SERVICE GOODLAND KS
400 AM MST MON JAN 26 2015

...OFFICIAL OBSERVATIONS...

CITY           SKY/WX    TMP DP  RH WIND       PRES   REMARKS
GOODLAND KS    PTCLDY    38  30  73 W13       30.10S
HILL CITY KS   CLEAR     37  30  75 W8        30.02F
IMPERIAL NEB   PTCLDY    43  30  60 NW14      30.06S
MCCOOK NEB     CLEAR     38  30  73 W14       30.03S
AKRON CO       PTCLDY    37  28  70 W20       30.15R
BURLINGTON CO  CLEAR     34  28  79 W9        30.14S
LIMON CO       PTCLDY    35  26  69 W8        30.21S
$$

...UNOFFICIAL OBSERVATIONS...

CITY           SKY/WX    TMP DP  RH WIND       PRES   REMARKS
COLBY KS       CLEAR     37  34  87 W12       30.08S
GOVE KS          N/A     39  32  76 MISG        N/A
NORTON KS      CLEAR     37  28  70 W12       30.00R
SHARON SPRINGS   N/A     37  30  75 W8          N/A
KIT CARSON CO    N/A     28  23  81 MISG        N/A
YUMA CO          N/A     37  29  73 W16         N/A
$$


USA.gov is the U.S. government's official web portal to all federal, state and local government web resources and services.